Cloud_Cover
21 10 63 100 100 80 80 25 13 100 100 87 99 22 28 56 64 90 100 94 88 100 100 100 5 5 86 100 97 5 2 35
68 14 41 100 100 97 90 70 76 95 98 82 100 100 100 96 86 76 90 5 5 5 19 60 100 52 39 48 5 5 75 37
61 76 54 76 93 90 80 78 100 92 93 81 100 98 80 5 5 5 5 60 78 50 100 100 100 23 63 79 16 6 6 5
5 6 8 5 29 6 6 51 7 5 41 19 36 21 10 12 51 63 5 4 0 2 25 45 71 26 46 48 23 24 4 0
5 5 49 61 61 32 34 14 5 5 5 5 5 5 4 5 6 4 4 3 0 0 0 0 0 0 0 5 3 0 0 0
0 2 2 4 4 5 5 5 5 5 5 5 5 5 5 5 5 5 2 0 0 0 0 0 0 0 5 5 13 17 0 0
5 4 4 5 2 5 3 5 2 0 0 0 2 0 2 4 5 2 2 1 0 0 3 4 3 0 1 2 3 4 41 20
5 5 5 5 4 5 4 3 3 4 5 5 6 6 5 5 5 5 4 1 0 0 0 4 5 4 5 3 4 0 0 0
57 28 12 5 5 6 5 5 5 5 5 1 0 2 0 0 0 0 0 0 0 0 0 0 5 48 44 45 13 30 5 5
72 36 36 22 9 23 9 11 5 5 4 3 4 4 0 0 0 0 0 0 3 5 4 5 40 100 99 100 100 76 5 5
17 10 5 7 5 18 39 4 5 4 5 7 5 2 2 0 2 5 7 32 58 95 99 100 97 100 100 100 100 98 97 68
8 9 22 23 46 14 5 5 5 5 9 42 5 4 5 1 5 6 65 79 100 100 86 97 83 67 38 96 90 22 10 82
5 5 5 5 5 5 5 19 46 54 88 6 5 3 5 2 3 5 5 7 26 19 19 18 14 97 72 66 5 9 100 0
5 21 76 26 5 5 45 33 5 48 19 4 5 5 5 5 15 30 10 41 80 41 77 42 100 97 100 97 16 8 98 6
2 5 5 5 5 18 12 39 48 18 8 5 5 5 5 5 9 71 80 100 100 84 71 85 70 62 100 99 100 84 89 77
5 6 5 20 11 5 5 18 51 20 5 5 4 0 0 5 75 14 7 5 26 51 57 96 99 90 57 100 100 100 100 97
19 20 27 6 5 8 71 78 51 37 7 27 2 5 2 5 42 12 93 5 8 46 62 87 92 100 100 99 98 88 100 100
17 5 32 37 100 94 88 95 94 87 66 87 56 37 99 58 16 5 4 5 5 3 25 63 69 97 100 100 100 100 100 100
100 83 100 100 100 76 63 65 87 99 94 100 100 100 80 29 5 1 0 0 2 5 5 5 9 59 89 76 90 100 100 100
100 100 100 97 84 44 98 100 100 100 100 100 100 33 11 5 0 0 0 0 0 0 2 5 5 5 5 5 6 77 100 100